Regional Weather Roundup
Issued by NWS

Home | Current Version | Previous Version | Text Only | Print | Product List | Glossary Off
Versions: 1 2 3 4 5 6 7 8 9 10 11 12 13 14 15 16 17 18 19 20 21 22 23 24 25 26 27 28 29 30 31 32 33 34 35 36 37 38 39 40 41 42 43 44 45 46 47 48 49 50

000
ASUS43 KIND 011459
RWRIN

WEATHER ROUNDUP FOR INDIANA
NATIONAL WEATHER SERVICE INDIANAPOLIS IN
1000 AM EST SUN FEB 01 2015

NOTE: "FAIR" INDICATES FEW OR NO CLOUDS BELOW 12,000 FEET WITH NO
SIGNIFICANT WEATHER AND/OR OBSTRUCTIONS TO VISIBILITY.

* - STATION DOES NOT REPORT WEATHER SUCH AS PRECIPITATION OR FOG.

+ - STATION NOT QUALITY CONTROLLED BY THE NATIONAL WEATHER SERVICE.
    USE DATA WITH CAUTION...ESPECIALLY DEWPOINT AND RELATIVE
    HUMIDITY OBSERVATIONS.

INZ001>003-010>013-019-020-011600-
NORTHWEST INDIANA

CITY           SKY/WX    TMP DP  RH WIND       PRES   REMARKS
GARY /AIRPORT/ LGT SNOW  34  32  93 CALM      29.91F VSB 1
VALPARAISO     LGT SNOW  32  30  93 E9        29.90F VSB 3/4 WCI  24

$$

LMZ046-743>745-011600-
SOUTHERN LAKE MICHIGAN

STATION/POSITION TIME  TEMP WIND        PRES
                       AIR  DIR/SP/G
                 (UTC) (F)  (DEG/KT/KT) (MB)
MICHIGAN CITY    1400   30   60/ 11/ 14   N/A

$$

INZ004-005-014>016-021>024-011600-
NORTH CENTRAL INDIANA

CITY           SKY/WX    TMP DP  RH WIND       PRES   REMARKS
GOSHEN         SNOW      31  31 100 E16       29.95F VSB 1/4 WCI  20
PERU/GRISSOM   FLURRIES  34  32  93 E10       29.89F WCI  26
SOUTH BEND     SNOW      31  28  89 E14G28    29.95F VSB 1/2 WCI  21

$$

INZ006>009-017-018-025>027-011600-
NORTHEAST INDIANA

CITY           SKY/WX    TMP DP  RH WIND       PRES   REMARKS
ANGOLA *+      CLOUDY    27  25  93 E14       29.98F WCI  15
FORT WAYNE     CLOUDY    33  32  96 E14       29.96F FOG     WCI  23

$$

INZ028-029-035-036-043>045-051>053-011600-
WEST CENTRAL INDIANA

CITY           SKY/WX    TMP DP  RH WIND       PRES   REMARKS
CRAWFORDSVL +  SNOW      31  28  87 SE12      29.86F VSB 1/2 WCI  22
GREENCASTLE +  LGT SNOW  32  28  86 SE8       29.87F VSB 3/4 WCI  25
LAFAYETTE      LGT SNOW  32  31  96 E12       29.86F FOG     WCI  23
TERRE HAUTE    LGT RAIN  33  31  92 E7        29.85F FOG     WCI  27

$$

INZ030>032-037>040-046>048-054>057-064-065-011600-
CENTRAL INDIANA

CITY           SKY/WX    TMP DP  RH WIND       PRES   REMARKS
COLUMBUS       CLOUDY    36  27  69 E3        29.91F
INDIANAPOLIS   LGT SNOW  32  28  85 SE7       29.89F FOG     WCI  26
-EAGLE CREEK   LGT SNOW  34  29  82 SE7       29.89F WCI  28
KOKOMO *+      CLOUDY    34  28  80 SE10      29.91S WCI  26
MT COMFORT *+  CLOUDY    34  23  64 SE12      29.91F WCI  25
SHELBYVILLE    CLOUDY    36  29  75 E9        29.90F

$$

INZ033-034-041-042-049-050-058-059-011600-
EAST CENTRAL INDIANA

CITY           SKY/WX    TMP DP  RH WIND       PRES   REMARKS
MUNCIE         CLOUDY    35  31  85 SE14      29.92F WCI  26

$$

INZ060-061-067>069-081>083-085>088-011600-
SOUTHWEST INDIANA

CITY           SKY/WX    TMP DP  RH WIND       PRES   REMARKS
EVANSVILLE     RAIN      42  34  73 S10       29.82F
HUNTINGBURG *+ CLOUDY    43  30  61 S14G23    29.86F

$$

INZ062-063-066-070>080-084-089>092-011600-
SOUTH CENTRAL AND SOUTHEAST INDIANA

CITY           SKY/WX    TMP DP  RH WIND       PRES   REMARKS
BLOOMINGTON    FLURRIES  35  28  75 CALM      29.87F
SEYMOUR +      CLOUDY    41  25  52 SE7       29.88F

$$




USA.gov is the U.S. government's official web portal to all federal, state and local government web resources and services.